SB KEPS @ AMSAT $ORB12173.O Orbital Elements 12173.OSCAR
HR AMSAT ORBITAL ELEMENTS FOR OSCAR SATELLITES FROM WA5QGD FORT WORTH,TX June 21, 2012 Send SUBSCRIBE KEPS/UNSUBSCRIBE KEPS to majordomo@amsat.org only BID: ORB12173.O TO ALL RADIO AMATEURS BT
Satellite: AO-07 Catalog number: 07530 Epoch time: 12172.57696110 Element set: 410 Inclination: 101.4021 deg RA of node: 169.6566 deg Eccentricity: 0.0011659 Arg of perigee: 276.8985 deg Mean anomaly: 083.0761 deg Mean motion: 12.53589837 rev/day Decay rate: -2.7e-07 rev/day^2 Epoch rev: 72047 Checksum: 307
Satellite: FO-29 Catalog number: 24278 Epoch time: 12172.95700475 Element set: 0872 Inclination: 098.5869 deg RA of node: 273.1177 deg Eccentricity: 0.0350926 Arg of perigee: 019.6809 deg Mean anomaly: 341.7489 deg Mean motion: 13.52984227 rev/day Decay rate: -6.0e-07 rev/day^2 Epoch rev: 78246 Checksum: 356
Satellite: SO-33 Catalog number: 25509 Epoch time: 12173.74039106 Element set: 260 Inclination: 031.4364 deg RA of node: 307.9313 deg Eccentricity: 0.0352688 Arg of perigee: 243.1946 deg Mean anomaly: 113.2170 deg Mean motion: 14.28780853 rev/day Decay rate: 6.10e-06 rev/day^2 Epoch rev: 71330 Checksum: 279
Satellite: RS-22 Catalog number: 27939 Epoch time: 12173.71303258 Element set: 468 Inclination: 097.8113 deg RA of node: 014.2966 deg Eccentricity: 0.0012264 Arg of perigee: 249.7009 deg Mean anomaly: 110.2873 deg Mean motion: 14.64047450 rev/day Decay rate: 4.36e-06 rev/day^2 Epoch rev: 46654 Checksum: 303
Satellite: VO-52 Catalog number: 28650 Epoch time: 12173.50818670 Element set: 133 Inclination: 097.5957 deg RA of node: 204.2511 deg Eccentricity: 0.0027166 Arg of perigee: 029.4488 deg Mean anomaly: 330.8260 deg Mean motion: 14.82999502 rev/day Decay rate: 1.083e-05 rev/day^2 Epoch rev: 38561 Checksum: 313
Satellite: HO-68 Catalog number: 36122 Epoch time: 12173.69992155 Element set: 574 Inclination: 100.3609 deg RA of node: 232.9560 deg Eccentricity: 0.0007847 Arg of perigee: 097.7725 deg Mean anomaly: 262.4272 deg Mean motion: 13.16296277 rev/day Decay rate: -4.4e-07 rev/day^2 Epoch rev: 12098 Checksum: 322
/EX SB KEPS @ AMSAT $ORB12173.D Orbital Elements 12173.MICROS
HR AMSAT ORBITAL ELEMENTS FOR THE MICROSATS FROM WA5QGD FORT WORTH,TX June 21, 2012 Send SUBSCRIBE KEPS/UNSUBSCRIBE KEPS to majordomo@amsat.org only BID: ORB12173.D TO ALL RADIO AMATEURS BT
Satellite: UO-11 Catalog number: 14781 Epoch time: 12172.97333242 Element set: 0918 Inclination: 097.9544 deg RA of node: 232.4611 deg Eccentricity: 0.0009489 Arg of perigee: 028.3387 deg Mean anomaly: 331.8339 deg Mean motion: 14.80470343 rev/day Decay rate: 4.24e-06 rev/day^2 Epoch rev: 52049 Checksum: 309
Satellite: AO-16 Catalog number: 20439 Epoch time: 12172.86041431 Element set: 0503 Inclination: 098.4311 deg RA of node: 116.1320 deg Eccentricity: 0.0011144 Arg of perigee: 143.8113 deg Mean anomaly: 216.3824 deg Mean motion: 14.32060140 rev/day Decay rate: 1.18e-06 rev/day^2 Epoch rev: 17052 Checksum: 227
Satellite: LO-19 Catalog number: 20442 Epoch time: 12172.88285853 Element set: 420 Inclination: 098.3957 deg RA of node: 119.1463 deg Eccentricity: 0.0012316 Arg of perigee: 136.0809 deg Mean anomaly: 224.1358 deg Mean motion: 14.32278104 rev/day Decay rate: 1.06e-06 rev/day^2 Epoch rev: 17071 Checksum: 284
Satellite: AO-27 Catalog number: 22825 Epoch time: 12172.74571515 Element set: 0133 Inclination: 098.5728 deg RA of node: 115.5055 deg Eccentricity: 0.0007443 Arg of perigee: 270.1681 deg Mean anomaly: 089.8628 deg Mean motion: 14.29465565 rev/day Decay rate: 1.1e-07 rev/day^2 Epoch rev: 97698 Checksum: 327
Satellite: IO-26 Catalog number: 22826 Epoch time: 12173.79565221 Element set: 882 Inclination: 098.5693 deg RA of node: 116.9076 deg Eccentricity: 0.0008026 Arg of perigee: 261.8360 deg Mean anomaly: 098.1916 deg Mean motion: 14.29740840 rev/day Decay rate: 8.7e-07 rev/day^2 Epoch rev: 97726 Checksum: 339
Satellite: GO-32 Catalog number: 25397 Epoch time: 12173.68592877 Element set: 805 Inclination: 098.3620 deg RA of node: 152.1731 deg Eccentricity: 0.0000327 Arg of perigee: 323.5311 deg Mean anomaly: 036.5844 deg Mean motion: 14.23280520 rev/day Decay rate: 1.68e-06 rev/day^2 Epoch rev: 72466 Checksum: 295
Satellite: NO-44 Catalog number: 26931 Epoch time: 12172.81839519 Element set: 0071 Inclination: 067.0526 deg RA of node: 110.9820 deg Eccentricity: 0.0007667 Arg of perigee: 262.4363 deg Mean anomaly: 097.5862 deg Mean motion: 14.29806543 rev/day Decay rate: 8.0e-07 rev/day^2 Epoch rev: 55976 Checksum: 323
Satellite: SO-50 Catalog number: 27607 Epoch time: 12172.76966482 Element set: 0793 Inclination: 064.5591 deg RA of node: 284.0007 deg Eccentricity: 0.0082731 Arg of perigee: 247.7761 deg Mean anomaly: 111.4524 deg Mean motion: 14.72408277 rev/day Decay rate: 7.73e-06 rev/day^2 Epoch rev: 51049 Checksum: 319
Satellite: CO-55 Catalog number: 27844 Epoch time: 12172.51268694 Element set: 0401 Inclination: 098.7006 deg RA of node: 180.8442 deg Eccentricity: 0.0009265 Arg of perigee: 208.8819 deg Mean anomaly: 151.1842 deg Mean motion: 14.21031565 rev/day Decay rate: -1.0e-07 rev/day^2 Epoch rev: 46536 Checksum: 296
Satellite: CO-57 Catalog number: 27848 Epoch time: 12172.58733806 Element set: 350 Inclination: 098.7109 deg RA of node: 180.2544 deg Eccentricity: 0.0008756 Arg of perigee: 214.3669 deg Mean anomaly: 145.6989 deg Mean motion: 14.20781516 rev/day Decay rate: -1.58e-06 rev/day^2 Epoch rev: 46531 Checksum: 338
Satellite: AO-51 Catalog number: 28375 Epoch time: 12172.41332020 Element set: 0298 Inclination: 098.1479 deg RA of node: 137.5390 deg Eccentricity: 0.0084726 Arg of perigee: 031.4738 deg Mean anomaly: 329.1483 deg Mean motion: 14.40956006 rev/day Decay rate: 2.23e-06 rev/day^2 Epoch rev: 41923 Checksum: 298
Satellite: CP3 Catalog number: 31129 Epoch time: 12172.04375616 Element set: 0195 Inclination: 097.8816 deg RA of node: 179.6508 deg Eccentricity: 0.0102067 Arg of perigee: 114.0679 deg Mean anomaly: 247.1251 deg Mean motion: 14.53088718 rev/day Decay rate: 8.46e-06 rev/day^2 Epoch rev: 27439 Checksum: 317
Satellite: CO-65 Catalog number: 32785 Epoch time: 12173.63020732 Element set: 340 Inclination: 097.8005 deg RA of node: 234.5772 deg Eccentricity: 0.0015661 Arg of perigee: 050.4757 deg Mean anomaly: 309.7791 deg Mean motion: 14.83011576 rev/day Decay rate: 1.086e-05 rev/day^2 Epoch rev: 22442 Checksum: 296
Satellite: PRISM Catalog number: 33493 Epoch time: 12173.71087678 Element set: 809 Inclination: 098.1711 deg RA of node: 314.3803 deg Eccentricity: 0.0017480 Arg of perigee: 283.1391 deg Mean anomaly: 076.7877 deg Mean motion: 14.83928293 rev/day Decay rate: 2.398e-05 rev/day^2 Epoch rev: 18442 Checksum: 333
Satellite: SOHLA-1 Catalog number: 33496 Epoch time: 12172.84840839 Element set: 0762 Inclination: 098.1044 deg RA of node: 284.5593 deg Eccentricity: 0.0007297 Arg of perigee: 036.2252 deg Mean anomaly: 323.9435 deg Mean motion: 14.69981317 rev/day Decay rate: 3.57e-06 rev/day^2 Epoch rev: 18278 Checksum: 334
Satellite: SO-67 Catalog number: 35870 Epoch time: 12173.78316228 Element set: 69 Inclination: 097.2323 deg RA of node: 209.3684 deg Eccentricity: 0.0003156 Arg of perigee: 126.3149 deg Mean anomaly: 358.6434 deg Mean motion: 15.23884645 rev/day Decay rate: 4.268e-05 rev/day^2 Epoch rev: 15331 Checksum: 322
Satellite: TISAT-1 Catalog number: 36799 Epoch time: 12173.72953181 Element set: 85 Inclination: 098.0626 deg RA of node: 250.0979 deg Eccentricity: 0.0015457 Arg of perigee: 153.4088 deg Mean anomaly: 206.7916 deg Mean motion: 14.81985112 rev/day Decay rate: 1.784e-05 rev/day^2 Epoch rev: 10516 Checksum: 325
Satellite: STUDSAT Catalog number: 36801 Epoch time: 12173.85795905 Element set: 417 Inclination: 098.0727 deg RA of node: 250.9606 deg Eccentricity: 0.0013555 Arg of perigee: 140.1084 deg Mean anomaly: 220.1127 deg Mean motion: 14.84384620 rev/day Decay rate: 4.619e-05 rev/day^2 Epoch rev: 10521 Checksum: 282
Satellite: FO-69 Catalog number: 37227 Epoch time: 12172.42492825 Element set: 0212 Inclination: 071.9703 deg RA of node: 304.8102 deg Eccentricity: 0.0018015 Arg of perigee: 311.7487 deg Mean anomaly: 048.2086 deg Mean motion: 14.77089018 rev/day Decay rate: 2.81e-06 rev/day^2 Epoch rev: 03657 Checksum: 296
Satellite: FO-70 Catalog number: 37380 Epoch time: 12172.43102687 Element set: 0217 Inclination: 071.9742 deg RA of node: 305.3611 deg Eccentricity: 0.0018524 Arg of perigee: 308.1831 deg Mean anomaly: 051.7601 deg Mean motion: 14.76839861 rev/day Decay rate: 5.1e-07 rev/day^2 Epoch rev: 03646 Checksum: 284
Satellite: ALMASAT-1 Catalog number: 38078 Epoch time: 12173.80146932 Element set: 318 Inclination: 069.4956 deg RA of node: 306.8093 deg Eccentricity: 0.0759597 Arg of perigee: 242.9504 deg Mean anomaly: 109.2063 deg Mean motion: 14.09308119 rev/day Decay rate: 1.2118e-04 rev/day^2 Epoch rev: 1820 Checksum: 311
Satellite: XATCOBEO Catalog number: 38082 Epoch time: 12173.78017735 Element set: 336 Inclination: 069.4979 deg RA of node: 304.9169 deg Eccentricity: 0.0738749 Arg of perigee: 241.8886 deg Mean anomaly: 110.5737 deg Mean motion: 14.16412624 rev/day Decay rate: 2.6895e-04 rev/day^2 Epoch rev: 1824 Checksum: 343
/EX SB KEPS @ AMSAT $ORB12173.W Orbital Elements 12173.WEATHER
HR AMSAT ORBITAL ELEMENTS FOR WEATHER SATELLITES FROM WA5QGD FORT WORTH,TX June 21, 2012 Send SUBSCRIBE KEPS/UNSUBSCRIBE KEPS to majordomo@amsat.org only BID: ORB12173.W TO ALL RADIO AMATEURS BT
Satellite: NOAA-10 Catalog number: 16969 Epoch time: 12172.66473430 Element set: 0967 Inclination: 098.5797 deg RA of node: 201.6565 deg Eccentricity: 0.0011586 Arg of perigee: 221.7915 deg Mean anomaly: 138.2362 deg Mean motion: 14.27559368 rev/day Decay rate: 1.99e-06 rev/day^2 Epoch rev: 34036 Checksum: 338
